JES3101 SACO-SABE

Flight info

Callsign JES3101
Flight time 1h 1m
Altitude 35000
Route UTRAX UW24 SNT SNT9R
Aircraft A320/M-SDE3FGHIRWY/LB1

Departure

Time 2026-05-08 21:21
Airport Ingeniero Aeronáutico Ambrosio L.V. Taravella International Airport (SACO)

Arrival

Time 2026-05-08 22:23
Airport Aeroparque Jorge Newbery (SABE)
Time Latitude Longitude Altitude Speed Heading
2026-05-08 20:59 -31.31655 -64.21177 1620 ft 0 kts 269°
2026-05-08 21:13 -31.31655 -64.21152 1618 ft 5 kts 269°
2026-05-08 21:13 -31.31654 -64.21125 1615 ft 2 kts 248°
2026-05-08 21:13 -31.31649 -64.21113 1617 ft 2 kts 220°
2026-05-08 21:14 -31.31640 -64.21106 1619 ft 2 kts 195°
2026-05-08 21:14 -31.31629 -64.21103 1618 ft 2 kts 185°
2026-05-08 21:14 -31.31619 -64.21102 1616 ft 2 kts 182°
2026-05-08 21:14 -31.31617 -64.21101 1615 ft 0 kts 181°
2026-05-08 21:17 -31.31618 -64.21101 1616 ft 1 kts 181°
2026-05-08 21:18 -31.31660 -64.21101 1615 ft 11 kts 180°
2026-05-08 21:18 -31.31750 -64.21068 1613 ft 16 kts 137°
2026-05-08 21:18 -31.31859 -64.21028 1618 ft 18 kts 179°
2026-05-08 21:18 -31.31988 -64.21026 1615 ft 20 kts 179°
2026-05-08 21:19 -31.32132 -64.21024 1613 ft 22 kts 179°
2026-05-08 21:19 -31.32261 -64.21021 1617 ft 15 kts 179°
2026-05-08 21:19 -31.32330 -64.21020 1618 ft 7 kts 179°
2026-05-08 21:19 -31.32383 -64.21019 1620 ft 9 kts 179°
2026-05-08 21:20 -31.32429 -64.20974 1615 ft 10 kts 124°
2026-05-08 21:20 -31.32430 -64.20881 1617 ft 14 kts 65°
2026-05-08 21:20 -31.32356 -64.20790 1618 ft 17 kts 44°
2026-05-08 21:20 -31.32249 -64.20670 1619 ft 38 kts 43°
2026-05-08 21:21 -31.31895 -64.20271 1618 ft 99 kts 44°
2026-05-08 21:21 -31.31287 -64.19584 1674 ft 138 kts 45°
2026-05-08 21:21 -31.30596 -64.18771 2125 ft 141 kts 46°
2026-05-08 21:21 -31.29884 -64.17954 2692 ft 144 kts 46°
2026-05-08 21:22 -31.29100 -64.17063 2925 ft 170 kts 45°
2026-05-08 21:22 -31.28202 -64.16014 3170 ft 196 kts 52°
2026-05-08 21:22 -31.27791 -64.14417 3379 ft 227 kts 95°
2026-05-08 21:22 -31.28483 -64.12651 3792 ft 257 kts 127°
2026-05-08 21:23 -31.29756 -64.11109 4573 ft 268 kts 134°
2026-05-08 21:23 -31.31076 -64.09528 5408 ft 276 kts 134°
2026-05-08 21:23 -31.32400 -64.07872 6279 ft 282 kts 135°
2026-05-08 21:23 -31.33741 -64.06171 7121 ft 286 kts 135°
2026-05-08 21:24 -31.35088 -64.04451 8059 ft 288 kts 135°
2026-05-08 21:24 -31.36434 -64.02733 8946 ft 291 kts 135°
2026-05-08 21:24 -31.37807 -64.00985 9848 ft 293 kts 136°
2026-05-08 21:24 -31.39223 -63.99195 10340 ft 310 kts 136°
2026-05-08 21:25 -31.40747 -63.97285 10658 ft 329 kts 137°
2026-05-08 21:25 -31.42332 -63.95297 11302 ft 337 kts 137°
2026-05-08 21:25 -31.43940 -63.93266 11983 ft 343 kts 138°
2026-05-08 21:25 -31.45575 -63.91199 12688 ft 348 kts 139°
2026-05-08 21:26 -31.47227 -63.89109 13402 ft 352 kts 139°
2026-05-08 21:26 -31.48905 -63.86987 14049 ft 357 kts 139°
2026-05-08 21:26 -31.50603 -63.84841 14678 ft 361 kts 140°
2026-05-08 21:26 -31.52295 -63.82703 15308 ft 364 kts 140°
2026-05-08 21:27 -31.54023 -63.80518 15944 ft 367 kts 140°
2026-05-08 21:27 -31.55766 -63.78312 16579 ft 370 kts 140°
2026-05-08 21:27 -31.57523 -63.76088 17217 ft 373 kts 140°
2026-05-08 21:27 -31.59294 -63.73840 17860 ft 377 kts 140°
2026-05-08 21:28 -31.61080 -63.71572 18432 ft 381 kts 140°
2026-05-08 21:28 -31.62888 -63.69280 18999 ft 384 kts 139°
2026-05-08 21:28 -31.64708 -63.66973 19565 ft 387 kts 139°
2026-05-08 21:28 -31.66543 -63.64646 20152 ft 389 kts 139°
2026-05-08 21:29 -31.68384 -63.62305 20705 ft 392 kts 139°
2026-05-08 21:29 -31.70239 -63.59940 21238 ft 395 kts 139°
2026-05-08 21:29 -31.72106 -63.57559 21758 ft 398 kts 139°
2026-05-08 21:29 -31.73988 -63.55163 22270 ft 400 kts 139°
2026-05-08 21:30 -31.75880 -63.52754 22793 ft 403 kts 139°
2026-05-08 21:30 -31.77786 -63.50321 23330 ft 406 kts 138°
2026-05-08 21:30 -31.79675 -63.47906 23782 ft 408 kts 138°
2026-05-08 21:30 -31.81612 -63.45439 24167 ft 412 kts 138°
2026-05-08 21:31 -31.83559 -63.42955 24635 ft 413 kts 138°
2026-05-08 21:31 -31.85510 -63.40461 25064 ft 416 kts 138°
2026-05-08 21:31 -31.87472 -63.37948 25488 ft 418 kts 138°
2026-05-08 21:31 -31.89426 -63.35392 25908 ft 421 kts 136°
2026-05-08 21:32 -31.91316 -63.32737 26319 ft 425 kts 134°
2026-05-08 21:32 -31.93161 -63.29998 26733 ft 428 kts 133°
2026-05-08 21:32 -31.94983 -63.27214 27141 ft 431 kts 133°
2026-05-08 21:32 -31.96809 -63.24408 27538 ft 433 kts 133°
2026-05-08 21:33 -31.98656 -63.21593 27939 ft 435 kts 133°
2026-05-08 21:33 -32.00529 -63.18772 28366 ft 437 kts 133°
2026-05-08 21:33 -32.02415 -63.15957 28779 ft 439 kts 133°
2026-05-08 21:33 -32.04317 -63.13134 29186 ft 441 kts 133°
2026-05-08 21:34 -32.06237 -63.10291 29544 ft 444 kts 133°
2026-05-08 21:34 -32.08143 -63.07465 29910 ft 448 kts 133°
2026-05-08 21:34 -32.10108 -63.04541 30247 ft 450 kts 133°
2026-05-08 21:34 -32.12031 -63.01667 30553 ft 453 kts 133°
2026-05-08 21:35 -32.13990 -62.98734 30850 ft 456 kts 133°
2026-05-08 21:35 -32.15956 -62.95787 31149 ft 459 kts 133°
2026-05-08 21:35 -32.17938 -62.92809 31480 ft 460 kts 132°
2026-05-08 21:35 -32.19912 -62.89839 31966 ft 459 kts 132°
2026-05-08 21:36 -32.21885 -62.86873 32394 ft 459 kts 132°
2026-05-08 21:36 -32.23862 -62.83908 32806 ft 459 kts 133°
2026-05-08 21:36 -32.25842 -62.80943 33190 ft 461 kts 132°
2026-05-08 21:36 -32.27832 -62.77964 33505 ft 463 kts 132°
2026-05-08 21:37 -32.29825 -62.74970 33889 ft 464 kts 132°
2026-05-08 21:37 -32.31819 -62.71962 34225 ft 465 kts 132°
2026-05-08 21:37 -32.33812 -62.68953 34543 ft 465 kts 132°
2026-05-08 21:37 -32.35809 -62.65942 34834 ft 466 kts 132°
2026-05-08 21:38 -32.37809 -62.62922 34934 ft 464 kts 132°
2026-05-08 21:38 -32.41774 -62.56929 34942 ft 461 kts 132°
2026-05-08 21:39 -32.45720 -62.50959 34935 ft 461 kts 132°
2026-05-08 21:39 -32.49655 -62.44994 34933 ft 463 kts 132°
2026-05-08 21:40 -32.53617 -62.38981 34930 ft 463 kts 132°
2026-05-08 21:40 -32.57574 -62.32966 34943 ft 463 kts 131°
2026-05-08 21:41 -32.63502 -62.23926 34934 ft 462 kts 131°
2026-05-08 21:41 -32.67450 -62.17895 34929 ft 463 kts 131°
2026-05-08 21:42 -32.71315 -62.11767 34933 ft 465 kts 129°
2026-05-08 21:42 -32.74976 -62.05426 34927 ft 465 kts 127°
2026-05-08 21:43 -32.78599 -61.99040 34921 ft 465 kts 127°
2026-05-08 21:43 -32.82261 -61.92708 34919 ft 465 kts 128°
2026-05-08 21:44 -32.85954 -61.86391 34917 ft 465 kts 128°
2026-05-08 21:44 -32.89644 -61.80068 34928 ft 465 kts 127°
2026-05-08 21:45 -32.93298 -61.73769 34929 ft 465 kts 127°
2026-05-08 21:45 -32.96965 -61.67426 34926 ft 465 kts 127°
2026-05-08 21:46 -33.00631 -61.61082 34921 ft 464 kts 127°
2026-05-08 21:46 -33.04296 -61.54739 34908 ft 464 kts 127°
2026-05-08 21:47 -33.07950 -61.48390 34913 ft 464 kts 127°
2026-05-08 21:47 -33.11602 -61.42036 34902 ft 464 kts 127°
2026-05-08 21:48 -33.15257 -61.35679 34898 ft 464 kts 127°
2026-05-08 21:48 -33.18897 -61.29311 34897 ft 464 kts 127°
2026-05-08 21:49 -33.22537 -61.22924 34910 ft 464 kts 127°
2026-05-08 21:49 -33.26182 -61.16558 34907 ft 464 kts 127°
2026-05-08 21:50 -33.29795 -61.10221 34906 ft 464 kts 126°
2026-05-08 21:50 -33.33411 -61.03840 34896 ft 464 kts 126°
2026-05-08 21:51 -33.37025 -60.97434 34887 ft 464 kts 126°
2026-05-08 21:51 -33.40626 -60.91026 34899 ft 463 kts 126°
2026-05-08 21:52 -33.44217 -60.84617 34897 ft 463 kts 126°
2026-05-08 21:52 -33.47809 -60.78205 34891 ft 463 kts 126°
2026-05-08 21:53 -33.51372 -60.71846 34752 ft 460 kts 125°
2026-05-08 21:53 -33.53165 -60.68636 34514 ft 455 kts 125°
2026-05-08 21:53 -33.54915 -60.65497 34297 ft 451 kts 125°
2026-05-08 21:54 -33.56627 -60.62421 34064 ft 448 kts 125°
2026-05-08 21:54 -33.58350 -60.59320 33827 ft 445 kts 125°
2026-05-08 21:54 -33.60068 -60.56232 33556 ft 443 kts 125°
2026-05-08 21:54 -33.61772 -60.53175 33286 ft 440 kts 125°
2026-05-08 21:55 -33.63469 -60.50128 33017 ft 437 kts 125°
2026-05-08 21:55 -33.65148 -60.47106 32751 ft 434 kts 125°
2026-05-08 21:55 -33.66818 -60.44098 32492 ft 431 kts 124°
2026-05-08 21:56 -33.70121 -60.38142 31983 ft 426 kts 125°
2026-05-08 21:56 -33.71758 -60.35183 31730 ft 423 kts 124°
2026-05-08 21:56 -33.73379 -60.32247 31475 ft 420 kts 124°
2026-05-08 21:56 -33.74991 -60.29328 31222 ft 418 kts 124°
2026-05-08 21:57 -33.76592 -60.26423 30970 ft 416 kts 124°
2026-05-08 21:57 -33.78186 -60.23535 30723 ft 413 kts 125°
2026-05-08 21:57 -33.79773 -60.20668 30476 ft 411 kts 124°
2026-05-08 21:57 -33.81336 -60.17837 30233 ft 409 kts 125°
2026-05-08 21:58 -33.82901 -60.14988 29990 ft 407 kts 125°
2026-05-08 21:58 -33.84454 -60.12163 29725 ft 404 kts 125°
2026-05-08 21:58 -33.86013 -60.09355 29446 ft 403 kts 126°
2026-05-08 21:58 -33.87572 -60.06572 29163 ft 401 kts 126°
2026-05-08 21:59 -33.89133 -60.03793 28886 ft 400 kts 126°
2026-05-08 21:59 -33.90183 -60.01927 28695 ft 399 kts 126°
2026-05-08 21:59 -33.92234 -59.98270 28325 ft 397 kts 126°
2026-05-08 21:59 -33.93277 -59.96405 28147 ft 396 kts 126°
2026-05-08 22:00 -33.94811 -59.93657 27870 ft 395 kts 126°
2026-05-08 22:00 -33.96323 -59.90948 27614 ft 394 kts 126°
2026-05-08 22:00 -33.97846 -59.88211 27342 ft 393 kts 127°
2026-05-08 22:00 -33.99358 -59.85486 27082 ft 391 kts 127°
2026-05-08 22:01 -34.00866 -59.82766 26830 ft 389 kts 127°
2026-05-08 22:01 -34.02368 -59.80056 26577 ft 388 kts 127°
2026-05-08 22:01 -34.03864 -59.77357 26319 ft 386 kts 127°
2026-05-08 22:01 -34.05357 -59.74665 26067 ft 385 kts 127°
2026-05-08 22:02 -34.06843 -59.71982 25809 ft 384 kts 127°
2026-05-08 22:02 -34.08326 -59.69304 25579 ft 382 kts 127°
2026-05-08 22:02 -34.09802 -59.66643 25320 ft 381 kts 128°
2026-05-08 22:02 -34.11264 -59.64004 25023 ft 376 kts 128°
2026-05-08 22:03 -34.12710 -59.61395 24633 ft 373 kts 128°
2026-05-08 22:03 -34.14150 -59.58794 24221 ft 372 kts 128°
2026-05-08 22:03 -34.15584 -59.56195 23798 ft 371 kts 128°
2026-05-08 22:03 -34.17017 -59.53593 23375 ft 371 kts 129°
2026-05-08 22:04 -34.18442 -59.51007 22916 ft 369 kts 129°
2026-05-08 22:04 -34.19852 -59.48428 22497 ft 367 kts 129°
2026-05-08 22:04 -34.21258 -59.45871 22101 ft 364 kts 129°
2026-05-08 22:04 -34.22653 -59.43337 21678 ft 361 kts 129°
2026-05-08 22:05 -34.24023 -59.40801 21266 ft 359 kts 128°
2026-05-08 22:05 -34.25368 -59.38261 20855 ft 357 kts 128°
2026-05-08 22:05 -34.26693 -59.35728 20450 ft 356 kts 128°
2026-05-08 22:05 -34.28010 -59.33202 20042 ft 354 kts 128°
2026-05-08 22:06 -34.29323 -59.30687 19645 ft 353 kts 128°
2026-05-08 22:06 -34.30635 -59.28182 19244 ft 352 kts 128°
2026-05-08 22:06 -34.31927 -59.25720 18833 ft 351 kts 128°
2026-05-08 22:06 -34.33236 -59.23231 18429 ft 350 kts 128°
2026-05-08 22:07 -34.34541 -59.20748 18005 ft 349 kts 128°
2026-05-08 22:07 -34.35839 -59.18273 17582 ft 348 kts 128°
2026-05-08 22:07 -34.37127 -59.15810 17184 ft 345 kts 128°
2026-05-08 22:07 -34.38410 -59.13357 16788 ft 343 kts 128°
2026-05-08 22:08 -34.39681 -59.10927 16394 ft 341 kts 127°
2026-05-08 22:08 -34.40947 -59.08507 15999 ft 339 kts 127°
2026-05-08 22:08 -34.42203 -59.06099 15611 ft 337 kts 127°
2026-05-08 22:08 -34.43453 -59.03704 15226 ft 336 kts 127°
2026-05-08 22:09 -34.44701 -59.01317 14840 ft 334 kts 126°
2026-05-08 22:09 -34.45943 -58.98940 14453 ft 333 kts 125°
2026-05-08 22:09 -34.47179 -58.96571 14073 ft 332 kts 125°
2026-05-08 22:09 -34.48411 -58.94209 13692 ft 331 kts 124°
2026-05-08 22:10 -34.49638 -58.91852 13278 ft 330 kts 124°
2026-05-08 22:10 -34.50859 -58.89510 12880 ft 328 kts 124°
2026-05-08 22:10 -34.52070 -58.87183 12527 ft 325 kts 124°
2026-05-08 22:10 -34.53271 -58.84865 12137 ft 323 kts 124°
2026-05-08 22:11 -34.54462 -58.82563 11766 ft 321 kts 124°
2026-05-08 22:11 -34.55646 -58.80276 11389 ft 319 kts 124°
2026-05-08 22:11 -34.56622 -58.77855 11013 ft 320 kts 110°
2026-05-08 22:11 -34.57310 -58.75330 10646 ft 318 kts 110°
2026-05-08 22:12 -34.58008 -58.72786 10273 ft 317 kts 110°
2026-05-08 22:12 -34.58712 -58.70246 9899 ft 316 kts 110°
2026-05-08 22:12 -34.59413 -58.67729 9632 ft 311 kts 110°
2026-05-08 22:12 -34.60089 -58.65287 9278 ft 302 kts 110°
2026-05-08 22:13 -34.60745 -58.62905 8786 ft 294 kts 111°
2026-05-08 22:13 -34.61379 -58.60592 8426 ft 283 kts 111°
2026-05-08 22:13 -34.61989 -58.58337 8079 ft 281 kts 111°
2026-05-08 22:13 -34.62592 -58.56080 7719 ft 282 kts 111°
2026-05-08 22:14 -34.63187 -58.53842 7365 ft 283 kts 111°
2026-05-08 22:14 -34.63793 -58.51564 7004 ft 284 kts 112°
2026-05-08 22:14 -34.64399 -58.49278 6641 ft 285 kts 112°
2026-05-08 22:14 -34.65006 -58.46989 6265 ft 286 kts 111°
2026-05-08 22:15 -34.65612 -58.44708 5885 ft 279 kts 112°
2026-05-08 22:15 -34.66203 -58.42468 5375 ft 274 kts 112°
2026-05-08 22:15 -34.66789 -58.40264 4621 ft 282 kts 112°
2026-05-08 22:15 -34.67408 -58.37943 3895 ft 286 kts 112°
2026-05-08 22:16 -34.67987 -58.35747 3774 ft 266 kts 111°
2026-05-08 22:16 -34.68527 -58.33686 3644 ft 247 kts 112°
2026-05-08 22:16 -34.69042 -58.31727 3509 ft 240 kts 112°
2026-05-08 22:16 -34.69545 -58.29819 3330 ft 234 kts 111°
2026-05-08 22:17 -34.69689 -58.27889 3171 ft 231 kts 76°
2026-05-08 22:17 -34.69021 -58.26170 3012 ft 222 kts 44°
2026-05-08 22:17 -34.67813 -58.25114 2807 ft 208 kts 11°
2026-05-08 22:17 -34.66470 -58.24899 2569 ft 183 kts 343°
2026-05-08 22:18 -34.65354 -58.25316 2409 ft 154 kts 319°
2026-05-08 22:18 -34.64579 -58.26053 2318 ft 133 kts 301°
2026-05-08 22:18 -34.64057 -58.26936 2248 ft 129 kts 294°
2026-05-08 22:18 -34.63559 -58.27838 2164 ft 129 kts 295°
2026-05-08 22:19 -34.63060 -58.28735 2090 ft 128 kts 295°
2026-05-08 22:19 -34.62562 -58.29634 1986 ft 128 kts 295°
2026-05-08 22:19 -34.62066 -58.30529 1893 ft 128 kts 296°
2026-05-08 22:19 -34.61570 -58.31422 1802 ft 128 kts 296°
2026-05-08 22:20 -34.61074 -58.32315 1709 ft 128 kts 296°
2026-05-08 22:20 -34.60575 -58.33214 1528 ft 129 kts 296°
2026-05-08 22:20 -34.60082 -58.34101 1354 ft 128 kts 296°
2026-05-08 22:20 -34.59585 -58.34993 1174 ft 128 kts 297°
2026-05-08 22:21 -34.59089 -58.35882 1007 ft 127 kts 298°
2026-05-08 22:21 -34.58589 -58.36772 825 ft 128 kts 298°
2026-05-08 22:21 -34.58091 -58.37667 657 ft 128 kts 299°
2026-05-08 22:21 -34.57599 -58.38568 478 ft 129 kts 301°
2026-05-08 22:22 -34.57094 -58.39465 319 ft 129 kts 301°
2026-05-08 22:22 -34.56593 -58.40368 145 ft 129 kts 299°
2026-05-08 22:22 -34.56099 -58.41259 32 ft 117 kts 303°
2026-05-08 22:22 -34.55746 -58.41901 27 ft 67 kts 304°
2026-05-08 22:23 -34.55569 -58.42218 27 ft 36 kts 304°
2026-05-08 22:23 -34.55458 -58.42412 27 ft 21 kts 304°
2026-05-08 22:23 -34.55381 -58.42505 27 ft 6 kts 17°
2026-05-08 22:23 -34.55363 -58.42464 29 ft 7 kts 78°
2026-05-08 22:24 -34.55368 -58.42396 25 ft 9 kts 101°
2026-05-08 22:24 -34.55404 -58.42320 27 ft 12 kts 127°
2026-05-08 22:24 -34.55459 -58.42231 27 ft 15 kts 127°
2026-05-08 22:24 -34.55526 -58.42124 29 ft 17 kts 127°
2026-05-08 22:25 -34.55603 -58.41995 26 ft 20 kts 123°
2026-05-08 22:25 -34.55688 -58.41842 27 ft 23 kts 124°
2026-05-08 22:25 -34.55775 -58.41660 26 ft 26 kts 116°
2026-05-08 22:25 -34.55862 -58.41450 25 ft 29 kts 117°
2026-05-08 22:26 -34.55906 -58.41313 25 ft 12 kts 66°
2026-05-08 22:26 -34.55845 -58.41285 25 ft 10 kts 352°
2026-05-08 22:26 -34.55807 -58.41341 26 ft 4 kts 302°
2026-05-08 22:26 -34.55780 -58.41341 27 ft 5 kts 25°
2026-05-08 22:27 -34.55759 -58.41325 25 ft 4 kts 34°
2026-05-08 22:27 -34.55755 -58.41321 25 ft 0 kts 34°